Peoria, IL

1:20 PM CST on November 21, 2019 (GMT -0600)
Greater Peoria Regional

Weather History for KPIA - October, 2019

Change the Weather History Date:

Wednesday, October 16, 2019

  Actual Average Record
Temperature  
Mean Temperature 46 °F 54 °F  
Max Temperature 52 °F 65 °F 85 °F (1950)
Min Temperature 40 °F 43 °F 29 °F (1991)
Degree Days  
Heating Degree Days 19 11  
Month to date heating degree days 140 148  
Since 1 July heating degree days 141 238  
Cooling Degree Days 0 0  
Month to date cooling degree days 22 12  
Year to date cooling degree days 1232 1036  
Moisture  
Dew Point 36 °F    
Average Humidity 68    
Maximum Humidity 82    
Minimum Humidity 50    
Precipitation  
Precipitation 0.00 in 0.09 in 1.33 in (1984)
Month to date precipitation 1.05 1.40  
Year to date precipitation 42.25 29.50  
Snow  
Snow 0.00 in 0.00 in 0.00 in ()
Month to date snowfall 0.0 0.0  
Since 1 July snowfall 0.0 0.0  
Since 1 September snowfall 0.0 0.0  
Snow Depth 0.00 in    
Sea Level Pressure  
Sea Level Pressure 30.03 in    
Wind  
Wind Speed 8 mph ()    
Max Wind Speed 17 mph    
Max Gust Speed 26 mph    
Visibility 10.0 miles    
Events      
T = Trace of Precipitation, MM = Missing Value Source: Averaged Metar Reports

Daily Weather History Graph

Daily Weather History Graph

Search for Another Location

Airport or City:

Astronomy

Oct. 16, 2019 Rise Set
Actual Time 7:10 AM CDT 6:17 PM CDT
Civil Twilight 6:43 AM CDT 6:44 PM CDT
Nautical Twilight 6:11 AM CDT 7:16 PM CDT
Astronomical Twilight 5:39 AM CDT 7:48 PM CDT
Moon 8:09 PM CDT (10/16) 9:42 AM CDT (10/16)
Length of Visible Light 12h 01m
Length of Day
11h 06m
Waning Gibbous, 92% of the Moon is Illuminated
Oct 16
Waning Gibbous
Oct 21
Last Quarter
Oct 27
New
Nov 4
First Quarter
Nov 12
Full

Hourly Weather History & Observations

Time (CDT) Temp. Windchill Dew Point Humidity Pressure Visibility Wind Dir Wind Speed Gust Speed Precip Events Conditions
12:54 AM 45.0 °F 41.8 °F 37.0 °F 74% 29.94 in 10.0 mi WNW 5.8 mph - N/A   Clear
1:54 AM 45.0 °F 40.1 °F 37.0 °F 74% 29.94 in 10.0 mi NW 9.2 mph 18.4 mph N/A   Clear
2:54 AM 44.1 °F 38.6 °F 37.0 °F 76% 29.95 in 10.0 mi WNW 10.4 mph 17.3 mph N/A   Clear
3:54 AM 43.0 °F 36.8 °F 37.0 °F 80% 29.96 in 10.0 mi WNW 11.5 mph 21.9 mph N/A   Clear
4:54 AM 42.1 °F 37.1 °F 36.0 °F 79% 29.96 in 10.0 mi WNW 8.1 mph - N/A   Clear
5:54 AM 42.1 °F 36.1 °F 37.0 °F 82% 29.97 in 10.0 mi WNW 10.4 mph 18.4 mph N/A   Clear
6:54 AM 42.1 °F 36.6 °F 37.0 °F 82% 29.99 in 10.0 mi WNW 9.2 mph - N/A   Partly Cloudy
7:54 AM 44.1 °F 38.6 °F 37.9 °F 79% 30.01 in 10.0 mi WNW 10.4 mph 18.4 mph N/A   Overcast
8:54 AM 46.0 °F 41.0 °F 35.1 °F 66% 30.02 in 10.0 mi NNW 10.4 mph 20.7 mph N/A   Overcast
9:47 AM 46.9 °F - 35.1 °F 63% 30.03 in 10.0 mi NNW 10.4 mph 23.0 mph N/A   Overcast
9:54 AM 46.9 °F - 35.1 °F 63% 30.04 in 10.0 mi NW 11.5 mph 23.0 mph N/A   Overcast
10:22 AM 46.9 °F - 35.1 °F 63% 30.03 in 10.0 mi North 11.5 mph 18.4 mph N/A   Overcast
10:33 AM 48.0 °F - 35.1 °F 61% 30.04 in 10.0 mi NW 10.4 mph 19.6 mph N/A   Overcast
10:54 AM 48.0 °F - 35.1 °F 61% 30.05 in 10.0 mi NW 8.1 mph - N/A   Overcast
12:54 PM 50.0 °F - 34.0 °F 54% 30.06 in 10.0 mi WNW 11.5 mph 21.9 mph N/A   Overcast
1:54 PM 51.1 °F - 34.0 °F 52% 30.06 in 10.0 mi NW 10.4 mph 23.0 mph N/A   Overcast
2:54 PM 51.1 °F - 34.0 °F 52% 30.06 in 10.0 mi NW 8.1 mph 20.7 mph N/A   Overcast
3:54 PM 50.0 °F - 35.1 °F 57% 30.06 in 10.0 mi NW 10.4 mph 19.6 mph N/A   Overcast
4:54 PM 48.9 °F - 35.1 °F 59% 30.06 in 10.0 mi NW 6.9 mph 17.3 mph N/A   Partly Cloudy
5:54 PM 48.9 °F - 36.0 °F 61% 30.07 in 10.0 mi WNW 8.1 mph - N/A   Mostly Cloudy
6:54 PM 46.0 °F 43.9 °F 36.0 °F 68% 30.08 in 10.0 mi West 4.6 mph - N/A   Scattered Clouds
7:54 PM 46.0 °F 43.1 °F 37.0 °F 71% 30.09 in 10.0 mi WNW 5.8 mph - N/A   Overcast
8:54 PM 45.0 °F 42.6 °F 36.0 °F 71% 30.09 in 10.0 mi West 4.6 mph - N/A   Scattered Clouds
9:54 PM 43.0 °F 40.3 °F 35.1 °F 74% 30.09 in 10.0 mi WNW 4.6 mph - N/A   Clear
10:54 PM 43.0 °F 40.3 °F 35.1 °F 74% 30.09 in 10.0 mi NW 4.6 mph - N/A   Overcast
11:54 PM 41.0 °F - 34.0 °F 76% 30.09 in 10.0 mi Calm Calm - N/A   Clear